Location: Canet
(43.3261°N, 5.3723°E)
Time: 19:18:02
(UTC+00:00)

Cosmos 1825 Rocket - Pass Details

Date: 24 January 2021
Orbit: 604 x 631 km, 82.5° (Epoch: 07 March)

Event Time Altitude Azimuth Distance (km) Brightness Sun altitude
Rises 18:11:51 0° 167° (SSE) 2,862 7.0 -16.7°
Reaches altitude 10° 18:14:09 10° 159° (SSE) 1,966 6.0 -17.1°
Maximum altitude 18:18:10 38° 91° (E) 953 4.0 -17.8°
Enters shadow 18:18:33 37° 79° (E) 967 4.0 -17.9°
